Location: Bruderhein
(53.8035°N, 112.9265°W)
Time: 07:34:48
(UTC+00:00)

TIGRISAT - Pass Details

Date: 06 April 2023
Orbit: 599 x 682 km, 97.7° (Epoch: 03 June)

Event Time Altitude Azimuth Distance (km) Brightness Sun altitude
Rises 10:03:22 0° 99° (E) 2,995 ? -22.1°
Maximum altitude 10:08:35 11° 48° (NE) 2,024 ? -21.6°
Drops below altitude 10° 10:10:00 10° 30° (NNE) 2,122 ? -21.5°
Sets 10:13:52 0° 358° (N) 3,055 ? -21.1°
